This is the latest recevied weather packets stored in our database for station/object KC3UTO. If no packets are shown the sender has not sent any weather packets the latest 10 day(s).
| Time | Temp. | Humidity | Pressure | Rain* | Wind** | Luminosity | Snow |
|---|---|---|---|---|---|---|---|
| 1776982004 | 25° C | 28% | 1009.5 hPa | 0 mm | - | 95 W/m² | - |
| 1776981699 | 25.56° C | 27% | 1009.3 hPa | 0 mm | - | 92 W/m² | - |
| 1776981395 | 25° C | 28% | 1009.4 hPa | 0 mm | - | 140 W/m² | - |
| 1776981091 | 25.56° C | 27% | 1009.7 hPa | 0 mm | - | 88 W/m² | - |
| 1776980787 | 25° C | 28% | 1009.6 hPa | 0 mm | - | 97 W/m² | - |
| 1776980485 | 25° C | 27% | 1009.5 hPa | 0 mm | - | 66 W/m² | - |
| 1776980181 | 25.56° C | 27% | 1009.5 hPa | 0 mm | - | 75 W/m² | - |
| 1776979877 | 25° C | 28% | 1009.6 hPa | 0 mm | - | 85 W/m² | - |
| 1776979573 | 25° C | 27% | 1009.7 hPa | 0 mm | - | 96 W/m² | - |
| 1776979268 | 25° C | 27% | 1009.8 hPa | 0 mm | - | 97 W/m² | - |
| 1776978966 | 25° C | 27% | 1009.7 hPa | 0 mm | - | 69 W/m² | - |
| 1776978662 | 25° C | 26% | 1009.5 hPa | 0 mm | - | 110 W/m² | - |
| 1776978360 | 25.56° C | 26% | 1009.6 hPa | 0 mm | - | 85 W/m² | - |
| 1776978058 | 25.56° C | 27% | 1009.7 hPa | 0 mm | - | 106 W/m² | - |
| 1776977755 | 25.56° C | 27% | 1009.8 hPa | 0 mm | - | 158 W/m² | - |
| 1776977451 | 25.56° C | 26% | 1010 hPa | 0 mm | - | 140 W/m² | - |
| 1776977147 | 25° C | 27% | 1010 hPa | 0 mm | - | 245 W/m² | - |
| 1776976843 | 25° C | 27% | 1010 hPa | 0 mm | - | 140 W/m² | - |
| 1776976539 | 25° C | 28% | 1010 hPa | 0 mm | - | 137 W/m² | - |
| 1776976233 | 25° C | 26% | 1009.9 hPa | 0 mm | - | 92 W/m² | - |
| 1776975930 | 25° C | 27% | 1010 hPa | 0 mm | - | 212 W/m² | - |
| 1776975627 | 25° C | 26% | 1010 hPa | 0 mm | - | 265 W/m² | - |
| 1776975324 | 25° C | 27% | 1010.2 hPa | 0 mm | - | 172 W/m² | - |
| 1776975021 | 25° C | 26% | 1010.2 hPa | 0 mm | - | 173 W/m² | - |
| 1776974719 | 25° C | 26% | 1010.1 hPa | 0 mm | - | 139 W/m² | - |
* Rain latest hour (hover to see other rain measurements)
** Current wind speed in m/s (hover to see current wind gust speed)